This is the latest recevied weather packets stored in our database for station/object N4PWG. If no packets are shown the sender has not sent any weather packets the latest 10 day(s).
| Time | Temp. | Humidity | Pressure | Rain* | Wind** | Luminosity | Snow |
|---|---|---|---|---|---|---|---|
| 1777993599 | 16.11° C | 99% | 1025.9 hPa | 0 mm | - | 126 W/m² | - |
| 1777993297 | 16.11° C | 99% | 1025.9 hPa | 0 mm | - | 126 W/m² | - |
| 1777992992 | 16.11° C | 99% | 1025.9 hPa | 0 mm | - | 100 W/m² | - |
| 1777992691 | 16.11° C | 99% | 1025.8 hPa | 0 mm | - | 93 W/m² | - |
| 1777992388 | 15.56° C | 99% | 1025.9 hPa | 0 mm | - | 117 W/m² | - |
| 1777992086 | 15.56° C | 99% | 1025.9 hPa | 0 mm | - | 117 W/m² | - |
| 1777991783 | 15.56° C | 99% | 1025.5 hPa | 0 mm | - | 114 W/m² | - |
| 1777991480 | 15.56° C | 99% | 1025.3 hPa | 0 mm | - | 91 W/m² | - |
| 1777991177 | 15.56° C | 99% | 1025.4 hPa | 1.27 mm | - | 72 W/m² | - |
| 1777990875 | 15° C | 99% | 1026.1 hPa | 4.32 mm | - | 52 W/m² | - |
| 1777990572 | 15° C | 99% | 1026.1 hPa | 4.83 mm | - | 35 W/m² | - |
| 1777989965 | 15° C | 99% | 1026.2 hPa | 4.83 mm | - | 24 W/m² | - |
| 1777989662 | 15° C | 99% | 1026.6 hPa | 6.1 mm | - | 28 W/m² | - |
| 1777989358 | 15° C | 99% | 1026.6 hPa | 6.1 mm | - | 18 W/m² | - |
| 1777989055 | 15° C | 99% | 1026.6 hPa | 6.1 mm | - | 19 W/m² | - |
| 1777988745 | 15.56° C | 99% | 1026.8 hPa | 4.32 mm | - | 22 W/m² | - |
| 1777988443 | 15.56° C | 98% | 1027.2 hPa | 4.32 mm | - | 20 W/m² | - |
| 1777988139 | 15.56° C | 97% | 1026.9 hPa | 7.87 mm | - | 19 W/m² | - |
| 1777987835 | 15.56° C | 97% | 1027.1 hPa | 8.89 mm | - | 12 W/m² | - |
| 1777987532 | 15.56° C | 96% | 1027 hPa | 8.89 mm | - | 11 W/m² | - |
| 1777987230 | 15.56° C | 95% | 1027 hPa | 8.89 mm | - | 6 W/m² | - |
| 1777986926 | 15.56° C | 94% | 1027.2 hPa | 16.76 mm | - | 2 W/m² | - |
| 1777986624 | 16.11° C | 93% | 1027.1 hPa | 13.72 mm | - | 3 W/m² | - |
| 1777986322 | 16.11° C | 91% | 1026.9 hPa | 3.05 mm | - | 1 W/m² | - |
| 1777986020 | 16.67° C | 89% | 1026.6 hPa | 3.05 mm | - | 2 W/m² | - |
* Rain latest hour (hover to see other rain measurements)
** Current wind speed in m/s (hover to see current wind gust speed)